Location: Wildlife_Club
(35.6000°N, 81.4330°W)
Time: 05:33:44
(UTC-04:00)

A-11 Canister half - Pass Details

Date: 18 August 2020
Orbit: 1514 x 1686 km, 47.2° (Epoch: 23 September)

Event Time Altitude Azimuth Distance (km) Brightness Sun altitude
Rises 00:20:46 0° 302° (WNW) 4,858 12.2 -38.8°
Reaches altitude 10° 00:23:59 10° 297° (WNW) 3,890 11.5 -39.0°
Enters shadow 00:31:22 44° 258° (WSW) 2,178 9.6 -39.5°
